TimeMST,TemperatureF,Dew PointF,Humidity,Sea Level PressureIn,VisibilityMPH,Wind Direction,Wind SpeedMPH,Gust SpeedMPH,PrecipitationIn,Events,Conditions,WindDirDegrees,DateUTC
12:51 AM,26.1,21.9,84,30.29,10.0,West,9.2,-,N/A,,Clear,270,2012-11-15 07:51:00
1:51 AM,25.0,19.9,81,30.32,10.0,NW,3.5,-,N/A,,Clear,310,2012-11-15 08:51:00
2:51 AM,23.0,19.0,85,30.34,10.0,West,5.8,-,N/A,,Clear,270,2012-11-15 09:51:00
3:51 AM,23.0,19.0,85,30.36,10.0,Calm,Calm,-,N/A,,Clear,0,2012-11-15 10:51:00
4:51 AM,21.9,18.0,85,30.39,10.0,Calm,Calm,-,N/A,,Clear,0,2012-11-15 11:51:00
5:51 AM,18.0,14.0,84,30.41,10.0,Calm,Calm,-,N/A,,Clear,0,2012-11-15 12:51:00
6:51 AM,19.0,14.0,81,30.43,10.0,Calm,Calm,-,N/A,,Clear,0,2012-11-15 13:51:00
7:51 AM,19.0,16.0,88,30.43,10.0,Calm,Calm,-,N/A,,Clear,0,2012-11-15 14:51:00
9:51 AM,35.1,28.0,76,30.40,10.0,ESE,3.5,-,N/A,,Clear,110,2012-11-15 16:51:00
10:51 AM,39.9,27.0,60,30.40,10.0,South,5.8,-,N/A,,Clear,190,2012-11-15 17:51:00
11:51 AM,43.0,27.0,53,30.37,10.0,South,8.1,-,N/A,,Clear,180,2012-11-15 18:51:00
1:51 PM,45.0,28.9,53,30.32,10.0,South,9.2,-,N/A,,Clear,190,2012-11-15 20:51:00
2:51 PM,45.0,30.0,56,30.32,10.0,South,8.1,-,N/A,,Clear,190,2012-11-15 21:51:00
3:51 PM,39.9,28.9,65,30.32,10.0,South,9.2,-,N/A,,Clear,180,2012-11-15 22:51:00
4:51 PM,36.0,27.0,70,30.31,10.0,South,8.1,-,N/A,,Clear,170,2012-11-15 23:51:00
7:51 PM,34.0,24.1,67,30.30,10.0,SSE,17.3,-,N/A,,Clear,160,2012-11-16 02:51:00
8:51 PM,33.1,24.1,70,30.27,10.0,SSE,17.3,-,N/A,,Clear,150,2012-11-16 03:51:00
9:51 PM,32.0,24.1,73,30.23,10.0,SSE,18.4,-,N/A,,Clear,150,2012-11-16 04:51:00
10:51 PM,30.9,24.1,76,30.20,10.0,SE,13.8,-,N/A,,Clear,130,2012-11-16 05:51:00
11:51 PM,30.0,24.1,79,30.18,10.0,SSE,16.1,-,N/A,,Clear,150,2012-11-16 06:51:00